STARLINK-32661, 62899

Orbit data source: Space-Track

STARLINK-32661, 62899 is a payload satellite owned by SpaceX/Seattle (US) in LEO that was launched on Tue, 04 Feb 2025 UTC via an FALCON 9 launch vehicle from the Air Force Eastern Test Range (AFETR). Payload-class satellites include a variety of spacecraft equipped with specific instruments for various scientific and technological missions. These include communications satellites like Starlink; space stations such as the ISS; scientific satellites like the Hubble; Earth observation satellites from companies like Planet Labs, Umbra, and HawkEye 360; GPS; miniature CubeSats for education and research; and military/defense satellites.

Loading next visibility...
Identifier
62899, 2025-024W
Orbit
LEO
Country
Flag of USUS
Related business
Manufacturer
SpaceX/Seattle
Mission
Operational Commercial Communications
Bus & Motor
STARLINK V2M, Unknown motor
Mass
730 kg wet, ~700 kg dry
Launch date (UTC)
2025-02-04 (7 months ago)
Launch vehicle
FALCON 9
Launch site
Air Force Eastern Test Range (AFETR)
Object type
Payload
Rocket body
Debris
Shape & HBR
Box + 2 Pan, 14.5 m
Radar Cross Section
33.884 m², Large (>1 m²)

Expand to show TLE details & history
Last TLE update: 7 hours ago

TLE from 7 hours ago
0 STARLINK-32661
1 62899U 25024W   25259.61162834  .00027380  00000-0  10008-2 0  9992
2 62899  42.9963 228.3963 0000390 296.2184  63.8627 15.27578083 35642
Epoch: 2025-09-16T14:40Z
TLE epoch observation values (Epoch: 2025-09-16T14:40:44.688Z)
Latitude
-0.00006°
Longitude
12.4106°
Altitude
482.712 km
Speed
7.626 km/s
True Right ascension
15h 13m 35s
True Declination
0° 00' 00"
Sunlit
Object was in daylight at epoch
Visualization orbit readout
Latitude
Unknown
Longitude
Unknown
Altitude
Unknown
Speed
Unknown
Apparent Right ascension
Unknown
Apparent Declination
Unknown
Sunlit
N/A
Visualization observer readout
Local Sidereal Time
13:58:42
Azimuth
Unknown
Elevation
Unknown
Doppler factor
Unknown
Orbital elements
Apogee altitude
485.268 km
Perigee altitude
484.733 km
Semi-major axis
6,863.138 km
Eccentricity
0.00004
Inclination
42.9963°
RAAN
228.3963°
Arg. of periapsis
296.2184°
True anomaly
63.86671°
Mean anomaly
63.8627°
Eccentric anomaly
63.86471°
Mean motion
3.81732 °/min
Orbital period
94.31 mins
BSTAR
0.0010008
Loading maneuver chart data...
Computing Atmospheric mass density...
Loading historical data...
Loading historical data...
Loading historical data...
Loading historical data...
Loading historical data...
Loading historical data...
Loading historical data...

Documentation

Showing up to 5 results
|